CZ-6A DEB, 54445

Orbit data source: Space-Track

CZ-6A DEB, 54445 is space debris in SSO originally from a launch on Fri, 11 Nov 2022 UTC launched from the Taiyaun Space Center, China (TSC). Debris objects in space refer to the collection of defunct objects orbiting the Earth. Examples of debris include non-operational satellites, rocket bodies, and fragments generated from explosions, collisions, or faulty payload assembly.

Loading next visibility...
Identifier
54445, 2022-151FV
Orbit
SSO
Country
Flag of CNCN / PRC
Related business
Manufacturer
SAST
Mission
Spacecraft
Bus & Motor
Unknown
Mass
Unknown
Launch date (UTC)
2022-11-11 (4 years ago)
Launch vehicle
Unknown
Launch site
Taiyaun Space Center, China (TSC)
Object type
Payload
Rocket body
Debris
Shape & HBR
Unknown shape, 0.2 m
Radar Cross Section
Medium (>0.1 m² and <1 m²)

Expand to show TLE details & history
Last TLE update: 20 hours ago

TLE from 20 hours ago
0 CZ-6A DEB
1 54445U 22151FV  26235.56987727  .00000629  00000-0  23956-3 0  9997
2 54445  98.7310 280.1098 0053520 148.0234 212.4216 14.33609009197276
Epoch: 2026-08-23T13:40Z
TLE epoch observation values (Epoch: 2026-08-23T13:40:37.396Z)
Latitude
-0.00005°
Longitude
103.08995°
Altitude
815.028 km
Speed
7.429 km/s
True Right ascension
18h 40m 26s
True Declination
0° 00' 00"
Sunlit
Object was in full shadow at epoch
Visualization orbit readout
Latitude
Unknown
Longitude
Unknown
Altitude
Unknown
Speed
Unknown
Apparent Right ascension
Unknown
Apparent Declination
Unknown
Sunlit
N/A
Visualization observer readout
Local Sidereal Time
00:48:41
Azimuth
Unknown
Elevation
Unknown
Doppler factor
Unknown
Orbital elements
Apogee altitude
815.127 km
Perigee altitude
738.541 km
Semi-major axis
7,154.971 km
Eccentricity
0.00535
Inclination
98.731°
RAAN
280.1098°
Arg. of periapsis
148.0234°
True anomaly
212.09463°
Mean anomaly
212.4216°
Eccentric anomaly
212.25793°
Mean motion
3.58617 °/min
Orbital period
100.39 mins
BSTAR
0.00023956
Loading maneuver chart data...
Computing Atmospheric mass density...
Loading historical data...
Loading historical data...
Loading historical data...
Loading historical data...
Loading historical data...
Loading historical data...
Loading historical data...

Documentation

Showing up to 5 results
|